This demonstration page uses our WeatherBlox Daily Observations layout. Learn more.

Left ArrowRight Arrow

30.21309, -93.2044

Hourly Observations for July 6, 2021

Temp ( °F °C ) Dew Point ( °F °C ) Humidity (%) Winds ( mph kmh ) Pressure ( in mb ) Visibility ( mi km ) Precip ( " mm )
12:15 am 00:15 Clear 79 25.9 76 24.6 93 93 Calm 29.95 1014 10 16 0.00 0.00
12:35 am 00:35 Clear 79 26.1 76 24.7 92 92 N 3 6 29.95 1014 10 16 0.00 0.00
12:55 am 00:55 Clear 79 25.9 76 24.4 91 91 NNE 3 6 29.95 1014 10 16 0.00 0.00
1:15 am 01:15 Clear 78 25.8 76 24.4 92 92 NNE 3 6 29.95 1014 10 16 0.00 0.00
1:35 am 01:35 Clear 78 25.8 76 24.4 92 92 Calm 29.95 1014 10 16 0.00 0.00
1:55 am 01:55 Clear 78 25.5 75 24.1 92 92 NE 3 6 29.95 1014 10 16 0.00 0.00
2:15 am 02:15 Clear 78 25.5 75 23.9 91 91 NE 3 6 29.95 1014 10 16 0.00 0.00
2:35 am 02:35 Clear 78 25.5 75 23.9 91 91 Calm 29.94 1014 10 16 0.00 0.00
2:55 am 02:55 Clear 78 25.4 75 23.8 91 91 NE 3 6 29.95 1014 10 16 0.00 0.00
3:15 am 03:15 Clear 78 25.4 75 23.8 91 91 Calm 29.94 1014 10 16 0.00 0.00
3:35 am 03:35 Clear 78 25.3 75 23.8 91 91 Calm 29.94 1014 10 16 0.00 0.00
3:55 am 03:55 Clear 77 25 74 23.6 92 92 Calm 29.94 1014 10 16 0.00 0.00
4:15 am 04:15 Clear 77 25.2 74 23.6 91 91 ENE 5 7 29.94 1014 10 16 0.00 0.00
4:35 am 04:35 Clear 78 25.3 74 23.5 90 90 NE 3 6 29.93 1014 10 16 0.00 0.00
4:55 am 04:55 Clear 77 25.2 74 23.5 90 90 ENE 5 7 29.93 1014 10 16 0.00 0.00
5:15 am 05:15 Clear 77 25.2 74 23.6 91 91 E 5 7 29.93 1014 10 16 0.00 0.00
5:35 am 05:35 Clear 77 24.9 74 23.5 92 92 E 5 7 29.93 1014 10 16 0.00 0.00
6:00 am 06:00 Mostly Clear 77 25 75 24 94 94 Calm 29.92 1013 10 16 0.00 0.00
6:50 am 06:50 Partly Cloudy 77 25 75 24 94 94 Calm 29.94 1014 10 16 0.00 0.00
7:55 am 07:55 Mostly Cloudy 81 27 77 25 89 89 ESE 7 11 29.96 1015 10 16 0.00 0.00
8:50 am 08:50 Mostly Cloudy 82 28 79 26 89 89 SSE 7 11 29.97 1015 10 16 0.00 0.00
9:45 am 09:45 Mostly Cloudy 84 29 77 25 79 79 SSE 12 19 29.98 1015 10 16 0.00 0.00
10:53 am 10:53 Cloudy with Showers 79 26 73 23 84 84 SSW 8 13 29.99 1016 7 11 0.00 0.00
11:55 am 11:55 Mostly Cloudy 81 27 72 22 74 74 SW 13 20 29.97 1015 10 16 0.00 0.00
12:45 pm 12:45 Mostly Cloudy 81 27 72 22 74 74 SSW 12 19 29.98 1015 10 16 0.00 0.00
1:53 pm 13:53 Mostly Cloudy 82 28 73 23 74 74 SW 12 19 29.95 1014 10 16 0.00 0.00
2:47 pm 14:47 Partly Cloudy 82 28 73 23 74 74 Calm 29.94 1014 10 16 0.00 0.00
3:48 pm 15:48 Mostly Cloudy 84 29 73 23 70 70 S 6 9 29.94 1014 10 16 0.00 0.00
4:45 pm 16:45 Mostly Cloudy 84 29 73 23 70 70 S 3 6 29.91 1013 10 16 0.00 0.00
5:45 pm 17:45 Mostly Cloudy 86 30 73 23 66 66 S 7 11 29.91 1013 10 16 0.00 0.00
6:50 pm 18:50 Partly Cloudy 82 28 72 22 70 70 S 8 13 29.90 1013 10 16 0.00 0.00
7:47 pm 19:47 Mostly Cloudy 82 28 72 22 70 70 SSW 7 11 29.92 1013 10 16 0.00 0.00
8:50 pm 20:50 Mostly Clear 79 26 73 23 84 84 SSE 6 9 29.92 1013 10 16 0.00 0.00
9:48 pm 21:48 Mostly Clear 77 25 73 23 89 89 SSE 5 7 29.92 1013 10 16 0.00 0.00
10:15 pm 22:15 Clear 77 25.2 74 23.3 89 89 SE 5 7 29.92 1013 10 16 0.00 0.00
10:35 pm 22:35 Clear 78 25.6 74 23.5 88 88 E 3 6 29.93 1014 10 16 0.00 0.00
11:35 pm 23:35 Clear 77 24.9 74 23.2 90 90 S 3 6 29.95 1014 10 16 0.00 0.00
11:55 pm 23:55 Clear 77 24.9 74 23.3 91 91 Calm 29.95 1014 10 16 0.00 0.00

Powered by AerisWeather